Simultaneous Nadir Overpasses (SNOs) Predictions

Prediction of SNOs between GOES-15 and LANDSAT-8 Satellite Orbit:

Table of predicted SNOs for the next 14.0 days since TLE Epoch: 11/9/2024
Index Date Time (GOES-15) GOES-15 Lat,Lon LANDSAT-8 Lat,Lon Distance(km) Time Diff (sec)
1 11/10/2024 17:53:36 0.23, 61.57 0.82, 64.24 303.36 80
2 11/11/2024 06:14:51 -0.22, 61.49 0.29, 59.08 273.43 80
3 11/13/2024 06:05:18 -0.22, 61.52 -0.33, 62.05 60.20 80
4 11/15/2024 05:53:04 -0.22, 61.56 -0.94, 65.02 393.68 80
5 11/15/2024 18:14:27 0.21, 61.65 -0.19, 59.84 206.15 80
6 11/17/2024 17:59:32 0.21, 61.70 0.44, 62.81 126.70 80
7 11/18/2024 06:20:47 -0.19, 61.64 0.63, 57.65 452.30 80
8 11/19/2024 17:47:16 0.20, 61.75 1.06, 65.79 459.77 80
9 11/20/2024 06:08:30 -0.19, 61.68 0.05, 60.64 118.87 80
10 11/22/2024 05:58:53 -0.18, 61.73 -0.58, 63.62 214.98 80
11 11/22/2024 18:20:15 0.17, 61.80 -0.56, 58.45 382.33 80
